EW5123 Weather Reports


Display with metric or nautical units.
time (UTC)temp
F
wind
direction
speed
MPH
gust
MPH
rain 1hr
in
rain 24hr
in
rain mn
in
humidity
%
barometer
mb
20260502225545 70 211 2.0 6.0 0.00 0.00 0.00 18 982.5
20260502225046 70 165 1.0 6.0 0.00 0.00 0.00 17 982.6
20260502224545 71 131 0.0 3.0 0.00 0.00 0.00 18 982.6
20260502224049 70 288 1.0 10.0 0.00 0.00 0.00 17 982.6
20260502224045 70 282 0.0 3.0 0.00 0.00 0.00 18 982.5
20260502223045 69 207 1.0 10.0 0.00 0.00 0.00 19 982.7
20260502222545 68 223 1.0 5.0 0.00 0.00 0.00 18 982.7
20260502222045 69 221 1.0 4.0 0.00 0.00 0.00 19 982.8
20260502221545 70 130 0.0 4.0 0.00 0.00 0.00 19 982.8
20260502221045 69 150 1.0 8.0 0.00 0.00 0.00 19 983.0
20260502220549 66 284 1.0 6.0 0.00 0.00 0.00 18 983.0
20260502220545 67 72 1.0 8.0 0.00 0.00 0.00 20 983.0
20260502220152 67 328 1.0 6.0 0.00 0.00 0.00 19 983.1
20260502215048 67 340 1.0 9.0 0.00 0.00 0.00 18 983.4
20260502215043 67 307 2.0 8.0 0.00 0.00 0.00 17 983.2
20260502214543 67 342 2.0 8.0 0.00 0.00 0.00 20 983.3
20260502213544 67 314 2.0 9.0 0.00 0.00 0.00 17 983.5
20260502213043 68 199 1.0 7.0 0.00 0.00 0.00 19 983.5
20260502212543 70 209 1.0 4.0 0.00 0.00 0.00 16 983.8
20260502212043 69 141 0.0 4.0 0.00 0.00 0.00 20 983.8
20260502211544 69 141 0.0 4.0 0.00 0.00 0.00 22 983.8
20260502211044 68 122 0.0 4.0 0.00 0.00 0.00 20 983.9
20260502210544 66 34 1.0 5.0 0.00 0.00 0.00 19 984.0
20260502210048 66 242 2.0 8.0 0.00 0.00 0.00 19 984.3
20260502210043 65 211 1.0 5.0 0.00 0.00 0.00 21 984.1
20260502205045 67 206 2.0 8.0 0.00 0.00 0.00 19 984.3
20260502204544 68 174 1.0 5.0 0.00 0.00 0.00 20 984.4
20260502204043 68 161 0.0 6.0 0.00 0.00 0.00 19 984.4
20260502203543 68 328 0.0 6.0 0.00 0.00 0.00 19 984.4
20260502203044 69 225 1.0 6.0 0.00 0.00 0.00 20 984.4
20260502202544 67 342 1.0 6.0 0.00 0.00 0.00 20 984.4
20260502202044 67 148 0.0 4.0 0.00 0.00 0.00 19 984.4
20260502201543 67 119 0.0 3.0 0.00 0.00 0.00 20 984.6
20260502201043 67 155 0.0 5.0 0.00 0.00 0.00 20 984.6
20260502200549 64 284 1.0 4.0 0.00 0.00 0.00 23 984.7
20260502200544 66 71 1.0 6.0 0.00 0.00 0.00 21 984.6
20260502200043 64 314 1.0 6.0 0.00 0.00 0.00 21 984.6
20260502195047 65 239 1.0 5.0 0.00 0.00 0.00 20 984.8
20260502195043 64 231 1.0 5.0 0.00 0.00 0.00 20 984.7
20260502194041 67 217 0.0 3.0 0.00 0.00 0.00 19 984.8
20260502193541 66 146 0.0 3.0 0.00 0.00 0.00 20 984.8
20260502193039 65 134 0.0 3.0 0.00 0.00 0.00 19 985.0
20260502192539 65 140 0.0 3.0 0.00 0.00 0.00 22 985.0
20260502192039 63 143 1.0 5.0 0.00 0.00 0.00 24 985.1
20260502191539 62 16 1.0 5.0 0.00 0.00 0.00 21 985.1
20260502191042 62 333 2.0 5.0 0.00 0.00 0.00 22 985.2
20260502191037 62 234 2.0 5.0 0.00 0.00 0.00 24 985.1
20260502190037 62 341 2.0 5.0 0.00 0.00 0.00 21 985.3
20260502185538 62 345 2.0 6.0 0.00 0.00 0.00 23 985.3
20260502185037 62 358 2.0 6.0 0.00 0.00 0.00 23 985.4
20260502184537 62 313 1.0 7.0 0.00 0.00 0.00 22 985.4
20260502184037 62 333 1.0 7.0 0.00 0.00 0.00 22 985.4
20260502183537 61 316 1.0 6.0 0.00 0.00 0.00 22 985.4
20260502183038 61 340 1.0 4.0 0.00 0.00 0.00 24 985.7
20260502182537 61 321 1.0 4.0 0.00 0.00 0.00 24 985.7
20260502182044 61 336 2.0 8.0 0.00 0.00 0.00 23 985.9
20260502182037 60 329 2.0 6.0 0.00 0.00 0.00 23 985.8
20260502181538 60 300 3.0 8.0 0.00 0.00 0.00 23 985.8
20260502180541 61 193 0.0 2.0 0.00 0.00 0.00 24 986.0
20260502180537 61 155 0.0 3.0 0.00 0.00 0.00 22 985.9
20260502164035 56 349 1.0 6.0 0.00 0.00 0.00 27 986.6
20260502163535 56 307 1.0 6.0 0.00 0.00 0.00 26 986.6
20260502163033 55 313 1.0 6.0 0.00 0.00 0.00 27 986.6
20260502162533 55 351 1.0 5.0 0.00 0.00 0.00 30 986.7
20260502162033 55 295 1.0 7.0 0.00 0.00 0.00 27 986.7
20260502161533 55 3 2.0 7.0 0.00 0.00 0.00 29 986.7
20260502161034 54 15 2.0 7.0 0.00 0.00 0.00 28 986.6
20260502161030 54 312 2.0 7.0 0.00 0.00 0.00 29 986.7
20260502152025 52 307 1.0 6.0 0.00 0.00 0.00 33 986.9
20260502151530 51 312 1.0 4.0 0.00 0.01 0.00 34 987.0
20260502151525 52 11 1.0 6.0 0.00 0.01 0.00 34 986.9
20260502150526 51 338 1.0 4.0 0.00 0.01 0.00 33 987.0
20260502130520 31 171 0.0 0.0 0.00 0.01 0.00 77 986.7
20260502123521 29 171 0.0 0.0 0.00 0.01 0.00 74 986.6
20260502123025 28 171 0.0 0.0 0.00 0.01 0.00 76 986.5
20260502123021 29 171 0.0 0.0 0.00 0.01 0.00 75 986.6
20260502122625 28 171 0.0 0.0 0.00 0.01 0.00 76 986.5
20260502121520 27 171 0.0 0.0 0.00 0.01 0.00 76 986.4
20260502121020 27 171 0.0 0.0 0.00 0.01 0.00 76 986.4
20260502120520 27 171 0.0 0.0 0.00 0.01 0.00 76 986.4
20260502115521 27 171 0.0 0.0 0.00 0.01 0.00 75 986.3
20260502115018 28 171 0.0 0.0 0.00 0.01 0.00 75 986.3
20260502114519 28 171 0.0 0.0 0.00 0.01 0.00 73 986.3
20260502114018 28 171 0.0 0.0 0.00 0.01 0.00 73 986.3
20260502113518 28 171 0.0 0.0 0.00 0.01 0.00 74 986.4
20260502113018 28 171 0.0 0.0 0.00 0.01 0.00 74 986.4
20260502112523 28 171 0.0 0.0 0.00 0.01 0.00 74 986.4
20260502112519 28 171 0.0 0.0 0.00 0.01 0.00 74 986.4
20260502112124 28 171 0.0 0.0 0.00 0.01 0.00 74 986.4
20260502111018 28 171 0.0 0.0 0.00 0.01 0.00 74 986.4
20260502110516 28 171 0.0 0.0 0.00 0.01 0.00 73 986.4
20260502110020 28 171 0.0 0.0 0.00 0.01 0.00 73 986.4
20260502110016 28 171 0.0 0.0 0.00 0.01 0.00 73 986.4
20260502105016 28 171 0.0 0.0 0.00 0.01 0.00 73 986.4
20260502104518 28 171 0.0 0.0 0.00 0.01 0.00 73 986.4
20260502104122 28 171 0.0 0.0 0.00 0.01 0.00 74 986.4
20260502104020 28 171 0.0 0.0 0.00 0.01 0.00 73 986.4
20260502104016 28 171 0.0 0.0 0.00 0.01 0.00 73 986.4
20260502102514 28 171 0.0 0.0 0.00 0.01 0.00 74 986.4
20260502102014 28 171 0.0 0.0 0.00 0.01 0.00 73 986.4
20260502101516 29 171 0.0 0.0 0.00 0.01 0.00 72 986.3
20260502101512 28 171 0.0 0.0 0.00 0.01 0.00 72 986.3
20260502100513 29 171 0.0 0.0 0.00 0.01 0.00 73 986.3
20260502091508 30 171 0.0 0.0 0.00 0.01 0.00 71 986.0
20260502091008 30 171 0.0 0.0 0.00 0.01 0.00 71 986.0
20260502090508 30 171 0.0 0.0 0.00 0.01 0.00 70 985.9
20260502071504 31 174 0.0 0.0 0.00 0.01 0.00 70 986.4
20260502071004 31 174 0.0 0.0 0.00 0.01 0.00 70 986.4
20260502070502 31 174 0.0 0.0 0.00 0.01 0.00 71 986.4
20260502070001 31 181 0.0 0.0 0.00 0.01 0.00 71 986.5
20260502065502 31 191 0.0 0.0 0.00 0.01 0.00 71 986.5
20260502065002 31 190 0.0 1.0 0.00 0.01 0.00 70 986.5
20260502064502 31 143 0.0 1.0 0.00 0.01 0.00 70 986.5
20260502064002 31 138 0.0 0.0 0.00 0.01 0.00 70 986.5
20260502063502 31 138 0.0 0.0 0.00 0.02 0.00 69 986.6
20260502063001 31 138 0.0 0.0 0.00 0.02 0.00 68 986.5
20260502062502 32 138 0.0 0.0 0.00 0.02 0.00 68 986.5
20260502062000 32 138 0.0 0.0 0.00 0.02 0.00 68 986.5
20260502061458 32 138 0.0 0.0 0.00 0.03 0.00 69 986.5
20260502060958 32 138 0.0 0.0 0.00 0.03 0.00 70 986.4
20260502060456 32 138 0.0 0.0 0.00 0.03 0.00 70 986.5
20260502055957 32 138 0.0 0.0 0.00 0.03 0.03 69 986.5
20260502055453 32 138 0.0 0.0 0.00 0.03 0.03 68 986.5
20260502054950 32 138 0.0 0.0 0.00 0.04 0.03 67 986.5
20260502054454 33 133 0.0 0.0 0.00 0.04 0.03 68 986.3
20260502054448 32 138 0.0 1.0 0.00 0.04 0.03 67 986.5
20260502053948 33 138 0.0 1.0 0.00 0.04 0.03 68 986.4
20260502052946 33 143 0.0 0.0 0.00 0.05 0.03 68 986.4
20260502052447 33 143 0.0 0.0 0.00 0.05 0.03 70 986.3
20260502051947 33 171 0.0 0.0 0.00 0.05 0.03 68 986.3
20260502051446 33 190 0.0 0.0 0.00 0.05 0.03 67 986.3
20260502050947 33 190 0.0 0.0 0.00 0.05 0.03 68 986.3
20260502050447 33 190 0.0 0.0 0.00 0.05 0.03 67 986.3
20260502045946 33 190 0.0 0.0 0.00 0.05 0.03 67 986.1
20260502045446 33 190 0.0 0.0 0.00 0.05 0.03 66 986.3
20260502044946 34 224 0.0 0.0 0.00 0.05 0.03 66 986.3
20260502044446 34 224 0.0 0.0 0.00 0.05 0.03 66 986.3
20260502043946 34 147 0.0 0.0 0.00 0.05 0.03 65 986.0
20260502043446 34 166 0.0 0.0 0.00 0.05 0.03 63 986.0
20260502042946 35 166 0.0 0.0 0.00 0.05 0.03 63 986.0
20260502042446 35 150 0.0 0.0 0.00 0.05 0.03 61 985.9
20260502041947 35 150 0.0 0.0 0.00 0.05 0.03 59 985.8
20260502041451 36 150 0.0 0.0 0.00 0.05 0.03 57 985.8
20260502041446 36 150 0.0 0.0 0.00 0.05 0.03 58 985.8
20260502041053 36 150 0.0 0.0 0.00 0.05 0.03 57 985.8
20260502035946 37 150 0.0 0.0 0.00 0.05 0.03 56 985.8
20260502035451 37 150 0.0 0.0 0.00 0.05 0.03 54 985.6
20260502035446 37 150 0.0 0.0 0.00 0.05 0.03 55 985.7
20260502034446 38 150 0.0 0.0 0.00 0.05 0.03 52 985.6
20260502033945 38 149 0.0 0.0 0.00 0.05 0.03 52 985.6
20260502033446 38 156 0.0 0.0 0.00 0.05 0.03 54 985.4
20260502032946 38 158 0.0 0.0 0.00 0.05 0.03 56 985.3
20260502032446 38 157 0.0 0.0 0.00 0.05 0.03 56 985.2
20260502031946 38 157 0.0 0.0 0.00 0.05 0.03 54 985.2
20260502031446 38 207 0.0 1.0 0.00 0.05 0.03 51 985.2
20260502030946 39 215 0.0 1.0 0.00 0.05 0.03 51 985.2
20260502030445 39 159 0.0 0.0 0.00 0.05 0.03 50 985.1
20260502025946 40 159 0.0 0.0 0.00 0.05 0.03 50 985.0
20260502025446 41 159 0.0 0.0 0.00 0.05 0.03 47 985.0
20260502024949 41 159 0.0 0.0 0.00 0.05 0.03 46 984.8
20260502024945 42 159 0.0 1.0 0.00 0.05 0.03 47 984.7
20260502023944 43 155 0.0 1.0 0.00 0.05 0.03 44 984.7
20260502023444 44 150 0.0 1.0 0.00 0.05 0.03 42 984.6
20260502022946 45 134 0.0 1.0 0.00 0.05 0.03 38 984.5
20260502022444 45 193 0.0 0.0 0.00 0.05 0.03 36 984.5
20260502021942 45 193 0.0 0.0 0.00 0.05 0.03 36 984.4
20260502021444 46 211 0.0 0.0 0.00 0.05 0.03 35 984.3
20260502021440 46 193 0.0 0.0 0.00 0.05 0.03 37 984.4
20260502020440 47 290 0.0 0.0 0.00 0.05 0.03 35 984.3
20260502015941 47 290 0.0 0.0 0.00 0.05 0.03 31 984.3
20260502015441 48 290 0.0 0.0 0.00 0.05 0.03 31 984.3
20260502014944 49 290 0.0 0.0 0.00 0.05 0.03 28 984.1
20260502014940 49 290 0.0 0.0 0.00 0.05 0.03 29 984.1
20260502013940 50 290 0.0 0.0 0.00 0.05 0.03 28 984.1
20260502013445 51 309 0.0 5.0 0.00 0.05 0.03 27 984.0
20260502013440 51 253 0.0 0.0 0.00 0.05 0.03 26 984.0
20260502012439 51 313 0.0 5.0 0.00 0.05 0.03 25 984.0
20260502011937 52 4 0.0 2.0 0.00 0.05 0.03 25 983.9
20260502011439 52 322 0.0 4.0 0.00 0.05 0.03 22 983.9
20260502010943 53 327 1.0 5.0 0.00 0.05 0.03 22 983.8
20260502010938 52 15 1.0 5.0 0.00 0.05 0.03 23 983.8
20260502010438 53 352 1.0 5.0 0.00 0.05 0.03 22 983.8
20260502005438 53 338 2.0 5.0 0.00 0.05 0.03 22 983.8
20260502004938 54 319 2.0 5.0 0.00 0.05 0.03 22 983.8
20260502004438 54 21 3.0 8.0 0.00 0.05 0.03 21 983.8
20260502003938 55 316 2.0 8.0 0.00 0.05 0.03 21 983.9
20260502003436 57 9 1.0 8.0 0.00 0.05 0.03 21 983.8
20260502002936 57 270 0.0 3.0 0.00 0.05 0.03 23 983.8
20260502002436 56 354 1.0 3.0 0.00 0.05 0.03 22 983.8
20260502001938 56 316 2.0 7.0 0.00 0.05 0.03 23 983.8
20260502001437 55 349 3.0 8.0 0.00 0.05 0.03 23 983.8
20260502000943 55 328 4.0 8.0 0.00 0.05 0.03 23 983.8
20260502000436 55 333 3.0 9.0 0.00 0.05 0.03 24 983.7
20260501235934 55 13 2.0 9.0 0.00 0.05 0.03 22 983.7
20260501235434 55 329 1.0 6.0 0.00 0.05 0.03 27 983.5
20260501234934 55 331 2.0 6.0 0.00 0.05 0.03 25 983.5
20260501234432 55 359 3.0 7.0 0.00 0.05 0.03 25 983.5
20260501233932 55 356 4.0 16.0 0.00 0.05 0.03 26 983.5
20260501233432 55 2 4.0 16.0 0.00 0.05 0.03 26 983.5
20260501232931 55 7 3.0 10.0 0.00 0.05 0.03 26 983.5
20260501232432 55 335 3.0 10.0 0.00 0.05 0.03 26 983.5
20260501231931 55 274 3.0 10.0 0.00 0.05 0.03 25 983.4
20260501231432 56 348 2.0 10.0 0.00 0.05 0.03 24 983.4
20260501230932 55 29 2.0 7.0 0.00 0.05 0.03 25 983.4
20260501230432 54 345 4.0 11.0 0.00 0.05 0.03 26 983.5
20260501225930 54 323 4.0 11.0 0.00 0.06 0.03 26 983.4